Weather in Yankul

Russia / Stavropol Krai     44°39′47″N   42°32′30″E
temp.,
°C
wind,
m/s
gust,
m/s
humid.,
%
clouds,
%
prec.,
mm/h
press.,
hPa
HPBL,
m
12 may, wed
wed1200:00+8ne128186 0.0 101641
03:00+5ene118697 0.0 101710
06:00+6sse01835 0.0 101842
09:00+12e23660 0.0 1017632
12:00+16e45540 0.0 10161263
15:00+18ese56545 0.0 10151369
18:00+17ese58675 0.0 1014506
21:00+12ese4127952 0.0 1014228
13 may, thu
thu1300:00+9e118014 0.0 101311
03:00+8ese228852 0.0 101410
06:00+10ese11865 0.0 101459
09:00+18se34670 0.0 1014538
12:00+22ese44560 0.0 1014924
15:00+23ese55545 0.0 10131046
18:00+21ese47695 0.0 1013274
21:00+15e34845 0.0 101447
14 may, fri
fri1400:00+14ese2285100 0.0 101312
03:00+13ese228724 0.0 101314
06:00+14se23860 0.0 101490
09:00+21se35650 0.0 1013421
12:00+26ese44530 0.0 1012726
15:00+26ese55530 0.0 1011898
18:00+23ese48670 0.0 1011276
21:00+18ese22795 0.0 101112
15 may, sat
sat1500:00+16ese22860 0.0 101114
03:00+14sse11842 0.0 101212
06:00+16ssw11813 0.0 101240
09:00+22w46695 0.0 1012514
12:00+27nw44554 0.0 10121206
15:00+27n44540 0.0 10111461
18:00+25n236821 0.0 1011111
21:00+20nne1184100 0.0 101211
16 may, sun
sun1600:00+19nne1188100 0.0 101111
03:00+17e11874 0.0 101011
06:00+17se118075 0.0 101043
09:00+22e33617 0.0 1009443
12:00+25ese56565 0.0 1007864
15:00+26e7949100 0.0 10061236
18:00+24e5125870 0.0 1004405
21:00+20ese8174157 0.0 1004528